HJ3GNC-17 Weather Reports


time (UTC)temp
F
wind
direction
speed
knots
gust
knots
rain 1hr
in
rain 24hr
in
rain mn
in
humidity
%
barometer
mb
20260505160639 57 160 0.0 0.0 0.00 0.00 0.00 66 1017.0
20260505151930 57 170 0.0 0.0 0.00 0.00 0.00 69 1017.0
20260505150348 57 130 0.0 0.0 0.00 0.00 0.00 70 1017.0
20260505124158 47 102 1.7 1.7 0.00 0.00 0.00 98 1018.0
20260505122609 47 110 0.0 0.0 0.00 0.00 0.00 98 1018.0
20260505121027 47 0 0.0 0.0 0.00 0.00 0.00 98 1018.0
20260505115438 47 20 0.0 0.0 0.00 0.00 0.00 98 1018.0
20260505113845 47 20 0.0 0.0 0.00 0.00 0.00 98 1018.0
20260505112255 47 20 0.0 0.0 0.00 0.00 0.00 98 1018.0
20260505110712 47 20 0.0 0.0 0.00 0.00 0.00 98 1018.0
20260505101957 48 10 0.0 0.0 0.00 0.00 0.00 95 1018.0
20260505100412 49 0 0.0 0.0 0.00 0.00 0.00 94 1018.0
20260505094829 49 0 0.0 0.0 0.00 0.00 0.00 94 1018.0
20260505093247 49 0 0.0 0.0 0.00 0.00 0.00 94 1018.0
20260505091652 49 0 0.0 0.0 0.00 0.00 0.00 94 1018.0
20260505090110 49 80 0.0 0.0 0.00 0.00 0.00 94 1018.0
20260505084527 49 80 0.0 0.0 0.00 0.00 0.00 94 1018.0
20260505082942 49 80 0.0 0.0 0.00 0.00 0.00 94 1018.0
20260505081354 49 80 0.0 0.0 0.00 0.00 0.00 94 1018.0
20260505075812 49 360 0.0 0.0 0.00 0.00 0.00 95 1018.0
20260505074227 49 360 0.0 0.0 0.00 0.00 0.00 93 1018.0
20260505072643 49 360 0.0 0.0 0.00 0.00 0.00 91 1018.0
20260505071059 49 360 0.0 0.0 0.00 0.00 0.00 89 1018.0
20260505065517 50 0 0.0 0.0 0.00 0.00 0.00 86 1018.0
20260505063933 51 0 0.0 0.0 0.00 0.00 0.00 85 1018.0
20260505062351 52 0 0.0 0.0 0.00 0.00 0.00 85 1018.0
20260505060806 52 0 0.0 0.0 0.00 0.00 0.00 84 1018.0
20260505055222 52 0 0.0 0.0 0.00 0.00 0.00 83 1018.0
20260505053640 52 0 0.0 0.0 0.00 0.00 0.00 81 1018.0
20260505052053 53 0 0.0 0.0 0.00 0.00 0.00 81 1019.0
20260505050508 53 0 0.0 0.0 0.00 0.00 0.00 79 1019.0
20260505040219 54 190 0.0 0.0 0.00 0.00 0.00 80 1019.0
20260505034630 54 190 0.0 0.0 0.00 0.00 0.00 80 1019.0
20260505033035 54 190 0.0 0.0 0.00 0.00 0.00 80 1019.0
20260505031449 54 190 0.0 0.0 0.00 0.00 0.00 79 1019.0
20260505025908 54 40 0.0 0.0 0.00 0.00 0.00 78 1019.0
20260505024320 54 40 0.0 0.0 0.00 0.00 0.00 77 1019.0
20260505022736 54 40 0.0 0.0 0.00 0.00 0.00 76 1019.0
20260505021153 54 40 0.0 0.0 0.00 0.00 0.00 75 1019.0
20260505015607 54 110 0.0 0.0 0.00 0.00 0.00 73 1019.0
20260505014025 54 110 0.0 0.0 0.00 0.00 0.00 73 1019.0
20260505012440 54 110 0.0 0.0 0.00 0.00 0.00 73 1018.0
20260505010858 54 110 0.0 0.0 0.00 0.00 0.00 73 1018.0
20260505005311 54 60 0.0 0.0 0.00 0.00 0.00 73 1018.0
20260505003721 54 60 0.0 0.0 0.00 0.00 0.00 73 1017.0
20260505002111 54 60 0.0 0.0 0.00 0.00 0.00 73 1016.0
20260505000529 54 60 0.0 0.0 0.00 0.00 0.00 73 1016.0
20260504234946 54 70 0.0 0.0 0.00 0.00 0.00 73 1016.0
20260504233407 54 70 0.0 0.0 0.00 0.00 0.00 73 1016.0
20260504231825 54 108 0.0 0.0 0.00 0.00 0.00 73 1015.0
20260504230237 54 108 0.0 0.0 0.00 0.00 0.00 73 1015.0
20260504224655 54 108 0.0 0.0 0.00 0.00 0.00 73 1015.0
20260504223114 55 70 0.0 0.0 0.00 0.00 0.00 73 1015.0
20260504221533 56 88 0.0 0.0 0.00 0.00 0.00 73 1014.0
20260504215948 56 60 0.0 0.0 0.00 0.00 0.00 73 1014.0
20260504214405 56 60 0.0 0.0 0.00 0.00 0.00 72 1014.0
20260504212818 57 60 0.0 0.0 0.00 0.00 0.00 71 1014.0
20260504211235 57 60 0.0 0.0 0.00 0.00 0.00 70 1014.0
20260504205652 57 57 0.0 0.0 0.00 0.00 0.00 68 1014.0
20260504204057 57 57 0.0 0.0 0.00 0.00 0.00 68 1014.0
20260504202511 57 301 0.0 0.0 0.00 0.00 0.00 68 1014.0
20260504200857 57 301 0.0 0.0 0.00 0.00 0.00 68 1014.0
20260504195314 57 301 0.0 0.0 0.00 0.00 0.00 68 1014.0
20260504193731 58 120 0.0 0.0 0.00 0.00 0.00 68 1014.0
20260504192150 59 0 0.0 0.0 0.00 0.00 0.00 68 1014.0
20260504190601 59 0 0.0 0.0 0.00 0.00 0.00 67 1014.0
20260504185020 59 150 0.0 0.0 0.00 0.00 0.00 66 1014.0
20260504183439 59 150 0.0 0.0 0.00 0.00 0.00 67 1014.0
20260504181854 59 150 0.0 0.0 0.00 0.00 0.00 67 1015.0
20260504180312 59 120 0.0 0.0 0.00 0.00 0.00 68 1015.0
20260504174730 59 120 0.0 0.0 0.00 0.00 0.00 70 1015.0
20260504173147 59 120 0.0 0.0 0.00 0.00 0.00 73 1015.0
20260504171601 59 120 0.0 0.0 0.00 0.00 0.00 76 1016.0